• MPC Preparation (Info)

  • MPEC 2014-L04 : 2014 KU86

    The following Minor Planet Electronic Circular may be linked-to from your own Web pages, but must not otherwise be redistributed electronically.

    A form allowing access to any MPEC is at the bottom of this page.


    Read MPEC 2014-L03 Read MPEC 2014-L05


    M.P.E.C. 2014-L04                                Issued 2014 June 1, 14:11 UT
    
         The Minor Planet Electronic Circulars contain information on unusual
             minor planets and routine data on comets.  They are published
       on behalf of Commission 20 of the International Astronomical Union by the
              Minor Planet Center, Smithsonian Astrophysical Observatory,
                              Cambridge, MA 02138, U.S.A.
    
                 Prepared using the Tamkin Foundation Computer Network
    
                                  MPC@CFA.HARVARD.EDU
                URL https://www.minorplanetcenter.net/    ISSN 1523-6714
    
                                       2014 KU86
    
    Observations:
         K14K86U* C2014 05 28.37667 16 01 51.948-11 14 43.32         21.4 wLEL004F51
         K14K86U  C2014 05 28.40209 16 01 47.982-11 14 12.56         21.4 wLEL004F51
         K14K86U  C2014 05 28.41479 16 01 45.985-11 13 56.86         21.4 wLEL004F51
         K14K86U =C2014 05 29.52236 15 58 56.05 -10 51 21.5          21.3  tEL004568
         K14K86U =C2014 05 29.52362 15 58 55.85 -10 51 19.9          21.1  tEL004568
         K14K86U =C2014 05 29.52491 15 58 55.65 -10 51 18.4          21.0  tEL004568
         K14K86U KC2014 05 30.37419 15 56 45.19 -10 33 55.7          21.4 RoEL004291
         K14K86U KC2014 05 30.37675 15 56 44.74 -10 33 52.8          21.4 RoEL004291
         K14K86U KC2014 05 30.37931 15 56 44.37 -10 33 49.5          21.1 RoEL004291
         K14K86U |C2014 06 01.13889 15 52 13.00 -09 57 26.7          21.4 VuEL004807
         K14K86U |C2014 06 01.14477 15 52 12.04 -09 57 19.1          21.3 VuEL004807
         K14K86U |C2014 06 01.15053 15 52 11.10 -09 57 11.9          21.2 VuEL004807
         K14K86U  C2014 06 01.16777115 52 08.73 -09 57 01.0          20.9 RtEL004H01
         K14K86U  C2014 06 01.17212315 52 08.05 -09 56 55.7          20.9 RtEL004H01
         K14K86U  C2014 06 01.19215815 52 04.89 -09 56 30.9          20.8 RtEL004H01
         K14K86U  C2014 06 01.20490115 52 02.87 -09 56 15.1          21.2 RtEL004H01
    
    Observer details:
    291 LPL/Spacewatch II.  Observer T. H. Bressi.  1.8-m f/2.7 reflector + CCD.
    568 Mauna Kea.  Observers R. J. Wainscoat, A. Draginda.  Measurers P. Veres,
        R. J. Wainscoat.  3.6-m Canada-France-Hawaii Telescope + CCD.
    807 Cerro Tololo.  Observers T. Linder, R. Holmes.  0.41-m f/11
        Ritchey-Chretien + CCD.
    F51 Pan-STARRS 1, Haleakala.  Observers N. Primak, A. Schultz, T. Goggia,
        M. Willman.  Measurer PS1 Science Consortium.  1.8-m Ritchey-Chretien
        + CCD.
    H01 Magdalena Ridge Observatory, Socorro.  Observer W. H. Ryan.  2.4-m f/8.9
        reflector + CCD.
    
    Orbital elements:
    2014 KU86                                                Earth MOID = 0.2917 AU
    Epoch 2014 May 23.0 TT = JDT 2456800.5                  MPC
    M 265.48661              (2000.0)            P               Q
    n   0.63414389     Peri.  166.56536     +0.74845237     -0.58497916
    a   1.3417682      Node   233.69669     +0.56699541     +0.80880058
    e   0.7076744      Incl.   22.81103     +0.34399892     -0.06034082
    P   1.55           H   19.4           G   0.15           U   9
    Residuals in seconds of arc
    140528 F51  0.1-  0.0     140530 291  0.4+  0.3+    140601 H01  0.1-  0.0
    140528 F51  0.1+  0.1-    140530 291  0.3-  0.0     140601 H01  0.0   0.1-
    140528 F51  0.0   0.1+    140530 291  0.2+  0.1+    140601 H01  0.0   0.0
    140529 568  0.2-  0.1-    140601 807  0.4+  0.3-    140601 H01  0.0   0.1+
    140529 568  0.2-  0.1-    140601 807  0.0   0.0
    140529 568  0.2-  0.2-    140601 807  0.4-  0.1+
    
    Ephemeris:
    2014 KU86                a,e,i = 1.34, 0.71, 23                  q = 0.3922
    Date    TT    R. A. (2000) Decl.     Delta      r     Elong.  Phase     V
    2014 05 02    16 55 32.9 -18 39 40   1.1071  2.0248   146.4    16.0    22.0
    ...
    2014 05 17    16 28 57.8 -14 52 35   0.9498  1.9467   166.2     7.1    21.3
    ...
    2014 05 25    16 10 19.9 -12 22 23   0.8929  1.9004   171.5     4.5    20.9
    ...
    2014 05 31    15 55 09.1 -10 20 59   0.8640  1.8634   165.7     7.7    21.0
    2014 06 01    15 52 34.5 -10 00 23   0.8604  1.8571   164.4     8.5    21.0
    2014 06 02    15 49 59.7 -09 39 45   0.8571  1.8507   162.9     9.3    21.0
    ...
    2014 06 08    15 34 37.1 -07 36 37   0.8440  1.8111   153.8    14.3    21.1
    ...
    2014 06 16    15 15 17.3 -05 01 25   0.8429  1.7551   141.4    21.2    21.3
    ...
    2014 07 01    14 46 30.8 -01 09 02   0.8787  1.6397   119.6    32.6    21.6
    
    A. U. Tomatic                (C) Copyright 2014 MPC           M.P.E.C. 2014-L04
    

    Read MPEC 2014-L03 Read MPEC 2014-L05


    MPEC number:

    Enter an MPEC number in one of the following forms:

    • 1997-B01 (the full form)
    • J97B01 (the packed version of the full form)
    • B01 (the abbreviated form)